Home > Weather > Tartu > Past weeks

Flag for Estonia Weather for the Past 2 Weeks in Tartu, Estonia

Now
34 °F

Light rain. Mostly cloudy.


Feels Like: 28 °F
Forecast: 30 / 34 °F
Wind: 7 mph from South

Location: Tartu/Ulenurme

Current Time: Feb 13, 2016 at 9:26:43 AM

Latest Report: Feb 13, 2016 at 8:50 AM


Visibility: 4 mi

Pressure: 29.71 "Hg

Humidity: 87%

Dew point: 30 °F

Location of TartuLocation

Historic Weather in Tartu — Graph

°F

Tartu Temperature Yesterday

Maximum temperature yesterday: 36 °F (at 5:50 PM)
Minimum temperature yesterday: 32 °F (at 5:50 AM)
Average temperature yesterday: 34 °F

High & Low Weather Summary for the Past Weeks

 TemperatureHumidityPressure
High43 °F (Jan 30, 12:50 PM)93% (Jan 30, 2:50 AM)30.04 "Hg (Jan 30, 2:50 AM)
Low23 °F (Feb 6, 7:50 AM)69% (Feb 6, 2:50 PM)28.94 "Hg (Feb 2, 8:50 AM)
Average36 °F85%29.45 "Hg
* Reported Jan 29 7:50 AM — Feb 13 7:50 AM, Tartu, Weather by CustomWeather, © 2016

Note: Actual official high and low records may vary slightly from our data, if they occured in-between our weather recording intervals... More about our weather records

Advertising

Tartu Weather History for the Previous 24 Hours

 ConditionsComfort  
Time TempWeatherWind HumidityBarometerVisibility
7:50 AM
Sat, Feb 13
36 °FLight rain. Mostly cloudy.10 mph81%29.68 "HgN/A
6:50 AM36 °FOvercast.9 mph81%29.68 "HgN/A
5:50 AM36 °FDrizzle. Overcast.9 mph87%29.65 "HgN/A
4:50 AM36 °FLow clouds.10 mph87%29.65 "HgN/A
3:50 AM36 °FDrizzle. Mostly cloudy.8 mph87%29.62 "HgN/A
2:50 AM36 °FOvercast.9 mph87%29.62 "HgN/A
1:50 AM36 °FMostly cloudy.8 mph81%29.62 "HgN/A
12:50 AM36 °FMostly cloudy.10 mph81%29.62 "HgN/A
11:50 PM
Fri, Feb 12
36 °FMostly cloudy.10 mph81%29.59 "HgN/A
10:50 PM36 °FOvercast.9 mph87%29.59 "HgN/A
9:50 PM36 °FOvercast.8 mph87%29.56 "HgN/A
8:50 PM36 °FOvercast.9 mph87%29.56 "HgN/A
7:50 PM36 °FMostly cloudy.8 mph87%29.53 "HgN/A
6:50 PM36 °FLight rain. Mostly cloudy.9 mph87%29.53 "HgN/A
5:50 PM36 °FLow clouds.8 mph81%29.53 "HgN/A
4:50 PM34 °FBroken clouds.8 mph87%29.50 "HgN/A
3:50 PM34 °FBroken clouds.9 mph87%29.47 "HgN/A
2:50 PM34 °FScattered showers. Broken clouds.9 mph87%29.45 "HgN/A
1:50 PM34 °FScattered showers. Mostly cloudy.13 mph87%29.42 "HgN/A
12:50 PM34 °FLow clouds.9 mph87%29.39 "HgN/A
11:50 AM34 °FMostly cloudy.9 mph87%29.39 "HgN/A
10:50 AM34 °FLight rain. Fog.7 mph87%29.36 "Hg2 mi
9:50 AM34 °FLight rain. Mostly cloudy.6 mph87%29.33 "Hg2 mi
Weather by CustomWeather, © 2016

See weather overviewHow to use our weather pages